Torna al catalogo

SL-16 DEB

AttivoLEO
NORAD 29097·DEBRIS·🇷🇺 Russia

Lanciato Mar 26, 1993 da Baikonur Cosmodrome

Loading…

Prossimi Passaggi (prossime 24 ore)

TLE

In scadenzaSource: Space-Track

Epoca: Sep 12, 2026, 13:57 UTC

1 29097U 93016AL  26255.58180772  .00000057  00000-0  71205-4 0  9995
2 29097  71.0087 357.8750 0123507 116.1686 258.4722 13.94627140286333

Traccia SL-16 DEB in tempo reale con AllMySat

Download on the App Store